Temperature
5 6 5 5 5 5 5 5 5 6 6 7 7 7 7 8 8 8 9 9 9 9 9 8 8 8 7 7 7 6 6 6 6 6 6 5 5 5 5 5 5 5 5 5
5 6 5 5 5 5 5 6 5 6 6 7 7 8 8 8 8 8 9 9 9 9 9 8 8 8 7 6 6 6 5 5 5 5 4 4 4 4 4 4 4 4 4 4
4 5 6 5 5 5 5 5 6 6 7 7 7 7 8 8 9 9 10 10 10 10 9 9 8 7 7 6 5 5 5 4 4 4 3 3 3 3 3 3 3 3 3 3
4 5 5 6 7 6 6 6 6 6 6 7 7 9 9 10 10 10 10 10 10 10 9 9 8 7 6 5 5 4 4 3 3 3 3 3 2 2 2 2 2 2 2 2
4 4 4 6 6 6 5 6 6 6 6 7 8 7 8 9 10 10 10 10 10 9 9 8 7 7 6 5 4 3 3 3 2 2 2 2 2 1 1 1 1 1 1 1
4 5 5 6 7 7 6 6 7 6 6 6 6 5 7 9 10 10 9 9 9 9 8 8 7 6 5 4 4 3 3 2 2 2 1 1 1 1 1 1 1 0 0 0
4 4 4 6 6 7 6 6 7 7 7 6 5 7 8 9 9 9 9 9 9 8 8 7 6 5 5 4 3 2 2 1 1 1 1 1 0 0 0 0 0 -0 -0 0
4 5 5 6 6 6 6 7 7 7 7 7 7 7 8 8 8 8 8 8 8 7 7 6 5 5 4 3 2 2 1 1 1 0 0 0 0 -0 -0 -0 -0 -0 -0 -0
4 5 6 6 7 7 7 7 7 7 7 7 7 7 8 8 8 8 7 7 7 7 6 5 5 4 3 3 2 1 1 1 0 0 0 0 -0 -0 -0 -0 -0 -0 -0 -0
4 4 6 7 7 8 8 7 8 7 7 7 7 7 7 7 7 7 7 6 6 6 5 5 4 3 3 2 1 1 0 0 0 0 0 -0 -0 -0 -0 -0 -0 -0 -0 -1
4 4 5 7 7 8 7 7 7 7 7 7 7 7 7 7 6 6 6 6 5 5 5 4 3 3 2 2 1 1 0 0 0 0 0 0 -0 -0 -0 -0 -1 -1 -1 -1
4 5 5 6 7 7 7 7 7 7 7 6 6 6 6 6 6 5 5 5 5 4 4 4 3 3 2 1 1 0 0 0 0 0 0 -0 -0 -0 -0 -0 -1 -1 -1 -1
4 5 5 6 6 6 6 6 6 6 6 6 6 5 5 5 5 5 5 4 4 4 4 3 3 2 2 1 1 1 0 0 0 0 0 -0 -0 -0 -0 -0 -1 -1 -1 -1
4 4 4 5 5 5 5 5 5 5 5 5 5 4 4 4 4 4 4 4 3 3 3 3 2 2 2 1 1 1 0 0 -0 -0 -0 -0 -0 -0 -1 -1 -1 -1 -1 -1
4 4 4 4 5 5 5 5 5 4 4 4 4 4 4 4 4 4 3 3 3 3 2 2 2 2 1 1 1 1 0 0 0 -0 -0 -0 -0 -1 -1 -1 -1 -1 -1 -1
3 3 3 4 4 4 4 4 4 4 3 3 3 3 3 3 3 3 3 2 2 2 2 2 2 1 1 1 1 1 0 0 -0 -0 -0 -0 -1 -1 -1 -1 -1 -1 -1 -1
2 2 2 3 3 3 3 3 3 3 2 2 2 2 2 2 2 2 2 2 2 2 2 1 1 1 1 1 1 1 0 -0 -0 -0 -0 -0 -1 -1 -1 -1 -1 -1 -1 -1
2 2 2 2 2 2 2 2 2 2 1 1 1 1 2 2 2 2 2 1 1 1 1 1 1 1 0 0 0 0 0 -0 -0 -0 -0 -1 -1 -1 -1 -1 -1 -1 -1 -1
1 1 1 2 2 1 1 1 1 1 1 1 1 1 1 1 1 1 1 1 1 1 1 0 0 0 0 0 0 -0 -0 -0 -1 -1 -1 -1 -1 -1 -1 -1 -1 -1 -1 -1
0 0 1 1 1 1 1 0 0 0 0 0 0 0 0 0 0 0 0 0 0 0 0 0 0 0 0 -0 -0 -0 -1 -1 -1 -1 -1 -1 -1 -1 -1 -1 -2 -2 -2 -2
-1 -1 -0 -0 -0 -0 -0 -0 -0 -0 -0 -0 -0 -0 -0 -0 -1 -1 -0 -0 -0 -1 -0 -0 -0 -0 -0 -1 -1 -1 -1 -1 -1 -1 -1 -1 -2 -2 -2 -2 -2 -2 -2 -2
-1 -1 -1 -1 -1 -1 -1 -1 -1 -1 -1 -1 -1 -1 -1 -1 -1 -1 -1 -1 -1 -1 -1 -1 -1 -1 -1 -1 -1 -1 -1 -2 -2 -2 -2 -2 -2 -2 -2 -2 -2 -2 -2 -3
-2 -2 -2 -2 -2 -2 -2 -2 -2 -1 -1 -1 -1 -1 -2 -2 -2 -2 -2 -2 -2 -1 -1 -1 -1 -1 -2 -2 -2 -2 -2 -2 -3 -3 -2 -3 -3 -3 -3 -3 -3 -3 -3 -3
-2 -2 -2 -2 -2 -2 -2 -2 -2 -2 -2 -2 -2 -2 -2 -2 -2 -2 -2 -2 -2 -2 -2 -2 -2 -2 -2 -2 -2 -3 -3 -3 -3 -3 -3 -3 -3 -3 -3 -4 -4 -4 -4 -4
-2 -2 -2 -2 -2 -2 -2 -2 -2 -2 -2 -2 -3 -3 -3 -3 -3 -3 -3 -3 -3 -3 -3 -3 -3 -3 -3 -3 -3 -3 -3 -4 -4 -4 -4 -4 -4 -4 -4 -4 -4 -4 -5 -5
-2 -2 -2 -2 -2 -2 -3 -3 -3 -3 -3 -3 -3 -3 -3 -3 -3 -4 -4 -4 -4 -4 -4 -4 -4 -4 -4 -4 -4 -4 -4 -4 -4 -4 -5 -5 -5 -5 -5 -5 -5 -5 -5 -5
-2 -2 -2 -2 -2 -3 -3 -3 -3 -3 -3 -3 -3 -3 -4 -4 -4 -4 -4 -4 -4 -4 -4 -4 -4 -4 -5 -5 -5 -5 -5 -5 -5 -5 -5 -5 -5 -5 -5 -5 -5 -5 -5 -6
Wind_Speed
5 4 5 6 8 11 12 10 9 8 9 10 8 6 6 6 6 7 7 8 9 9 8 7 7 7 6 6 6 6 6 6 5 5 5 5 5 5 5 6 6 6 6 6
2 2 5 5 8 12 13 11 12 11 12 9 6 4 5 7 8 9 10 10 10 9 9 9 9 9 8 7 6 6 6 6 5 5 5 5 5 5 6 6 6 6 6 6
2 2 0 6 10 13 8 8 9 14 14 6 6 7 9 9 10 11 11 10 11 11 11 11 10 10 9 8 7 7 7 6 6 6 5 5 5 6 6 6 6 6 6 6
1 1 6 7 3 7 9 10 11 10 8 8 10 9 7 8 10 11 10 9 9 9 9 8 8 8 8 8 8 8 7 7 6 6 6 5 5 6 6 5 5 5 6 6
2 3 6 7 3 5 7 7 8 13 12 9 5 2 4 6 8 10 9 8 7 7 7 8 10 10 10 9 8 8 7 7 7 7 7 7 6 6 5 5 5 4 5 5
3 2 5 5 2 2 3 5 4 5 8 6 5 4 6 4 6 6 5 4 5 6 7 9 9 11 11 10 9 9 8 7 7 7 7 7 7 6 4 5 5 5 5 4
5 4 7 6 3 3 2 5 3 2 4 5 7 6 2 3 4 4 4 5 6 8 7 8 10 11 10 9 9 8 7 7 7 7 7 7 6 5 6 5 5 5 4 3
5 5 7 3 4 5 6 3 2 2 2 3 3 2 3 3 4 5 5 5 6 7 6 7 9 10 10 9 7 7 8 8 7 7 7 7 7 6 6 6 6 4 3 2
7 7 4 3 5 4 2 2 2 1 1 2 3 2 2 3 3 3 4 4 4 6 6 6 8 9 9 7 8 9 8 8 7 7 6 7 7 7 6 5 5 4 4 3
4 6 5 5 4 3 2 3 1 0 1 2 3 3 3 2 2 2 3 4 4 6 7 7 7 7 7 8 9 9 9 8 8 8 7 6 6 6 6 6 5 5 5 4
5 6 5 5 3 3 1 1 1 2 2 2 3 2 2 2 1 2 2 3 5 6 7 7 7 7 7 9 10 9 9 8 8 7 7 6 6 5 6 6 6 7 6 5
5 4 3 5 4 1 2 1 1 2 2 2 2 2 2 1 1 1 2 2 4 5 6 6 7 8 8 9 10 10 9 9 7 7 6 6 5 4 7 8 10 11 10 8
6 5 4 5 3 1 1 1 1 2 2 2 2 2 2 1 0 0 1 2 4 5 6 6 7 8 9 10 10 11 9 9 7 7 7 7 6 6 4 5 8 10 11 11
5 4 4 3 2 1 1 2 3 4 3 3 2 2 2 1 0 1 2 3 3 4 5 6 7 8 9 10 10 10 9 10 9 7 7 7 7 6 6 5 4 4 7 10
6 5 5 2 0 1 2 3 3 3 2 3 3 2 2 1 2 3 3 2 2 3 4 5 7 7 8 10 11 10 9 8 8 7 7 7 7 6 6 6 6 4 3 5
5 3 1 1 2 1 1 2 2 1 1 1 2 2 2 2 3 3 2 1 2 3 4 5 7 6 7 9 10 9 9 12 10 8 7 7 7 7 7 7 7 6 7 6
3 3 2 2 2 2 1 1 1 1 1 1 1 2 2 2 2 3 3 3 3 4 3 4 5 4 6 9 9 8 7 9 13 9 8 8 8 8 8 8 8 8 8 8
4 4 3 2 2 2 2 2 2 2 1 1 2 2 2 2 3 4 4 4 3 3 2 3 3 3 5 7 8 7 7 7 8 8 8 8 8 8 8 8 9 9 7 7
2 2 2 2 2 2 2 2 2 2 2 2 2 2 2 3 3 4 4 3 3 3 4 4 4 2 3 5 7 6 7 7 7 7 7 10 10 8 8 8 8 8 7 7
4 4 5 5 5 4 3 2 2 2 2 2 2 2 3 3 4 4 4 3 2 3 4 4 3 3 3 4 6 5 6 7 8 8 8 8 8 8 8 9 9 8 8 8
4 4 4 4 4 4 3 2 2 2 2 2 2 2 3 4 4 3 3 3 3 4 4 5 3 3 3 4 5 4 6 6 7 7 8 8 8 8 9 9 9 9 8 8
3 2 3 2 2 2 3 2 2 2 2 3 3 3 3 4 4 4 3 2 4 7 5 3 3 5 6 5 3 4 5 6 6 6 7 8 8 8 8 8 8 8 8 8
2 2 2 1 1 1 2 2 2 2 2 2 3 3 3 3 3 3 4 3 4 8 6 4 6 9 8 4 3 4 5 6 6 6 7 7 7 7 8 8 8 8 8 8
1 1 1 1 1 1 2 2 2 2 2 2 2 3 3 3 3 2 3 7 9 9 5 7 9 9 7 3 3 3 4 5 5 5 5 5 6 6 7 7 7 7 7 8
2 2 2 1 1 2 2 2 2 2 3 2 3 3 2 2 3 4 4 5 8 8 5 7 9 8 4 3 3 4 4 4 5 5 5 5 5 6 6 6 6 6 7 7
3 3 3 3 2 2 2 2 2 2 2 3 3 3 3 3 3 3 4 4 6 7 5 4 5 5 3 3 4 4 4 5 5 5 5 5 5 6 5 6 7 6 6 6
3 3 2 3 2 2 2 2 3 3 3 3 4 3 3 3 3 3 4 4 4 4 4 4 4 4 4 4 4 4 4 4 4 4 4 4 4 5 5 6 6 5 5 5
Wind_Direction
243 225 181 201 200 195 205 211 218 237 238 258 263 255 238 212 191 181 188 190 191 190 186 178 173 169 162 154 147 140 133 127 124 116 108 101 94 90 87 86 86 85 85 84
287 234 203 225 219 209 217 223 235 252 261 251 249 233 222 208 195 198 204 204 201 196 189 187 184 178 169 163 156 147 143 139 133 126 118 111 107 103 97 91 87 85 81 81
272 301 137 255 224 209 207 209 205 234 247 239 234 229 223 212 204 209 212 208 202 200 198 195 188 178 175 167 154 150 149 146 144 140 136 131 126 115 107 100 95 88 79 78
208 102 237 245 227 199 213 233 220 234 245 229 231 235 227 207 204 214 215 211 208 201 195 184 172 166 158 153 156 157 157 157 156 154 148 139 133 125 115 108 102 95 85 80
175 236 280 294 263 185 197 261 232 235 248 246 233 251 268 224 207 212 210 203 200 190 178 164 165 161 154 157 159 163 168 169 167 164 159 154 149 138 128 120 110 99 92 87
177 212 251 262 289 177 141 282 273 229 244 237 170 207 252 221 191 192 178 168 161 150 148 158 162 156 158 165 170 179 179 173 168 167 165 163 155 141 129 127 121 111 99 89
204 231 264 262 259 133 180 259 297 259 246 205 193 213 227 131 126 136 135 135 139 145 155 164 158 158 166 173 186 182 165 161 164 166 164 158 148 140 138 132 122 116 110 92
192 220 254 254 140 182 228 267 300 309 293 190 181 132 103 105 113 121 122 130 139 145 151 154 160 164 173 186 178 157 157 162 165 164 162 156 150 146 144 142 139 139 136 128
201 221 249 219 215 246 231 248 282 303 357 132 136 135 124 118 121 125 136 145 147 152 154 162 171 173 181 180 158 157 162 167 166 164 162 160 161 159 154 157 160 167 171 183
254 268 270 265 255 263 233 228 251 153 121 129 131 135 127 121 125 137 150 162 159 160 169 181 184 186 181 164 162 164 170 172 171 171 169 168 170 170 170 176 180 185 192 202
266 282 302 295 260 244 223 166 124 88 92 117 127 133 148 148 162 179 182 177 177 184 192 193 186 188 176 167 167 171 176 178 179 180 177 177 180 185 186 195 193 193 201 198
247 265 258 278 300 264 197 199 174 138 98 70 103 124 123 136 157 179 195 187 195 202 203 195 187 189 182 176 176 177 183 185 185 183 181 180 180 194 219 213 222 225 217 209
261 287 263 272 301 293 201 177 118 116 116 96 68 80 93 93 108 184 214 213 219 219 213 199 192 195 189 184 184 187 189 187 185 185 185 184 185 190 203 221 228 229 227 224
278 273 265 259 275 323 99 97 92 81 71 77 72 60 63 52 11 296 268 257 248 232 217 204 201 206 195 187 189 193 191 192 190 190 189 190 194 195 194 196 207 231 233 230
285 269 257 264 179 85 90 100 96 83 68 56 53 48 34 353 304 293 290 288 264 237 226 214 214 215 193 189 193 195 195 195 192 189 189 191 192 194 199 203 210 215 219 235
301 300 264 209 193 162 124 129 137 139 87 53 30 3 335 314 304 308 309 291 250 251 245 231 230 221 195 192 195 198 201 201 192 190 190 193 195 199 204 209 214 218 223 223
270 268 244 239 217 197 177 166 162 156 105 30 341 336 338 338 334 333 326 308 273 263 256 244 245 229 202 197 197 199 199 202 200 197 199 199 201 205 208 211 217 223 228 222
259 260 243 227 203 177 143 103 97 90 57 9 357 4 359 342 323 318 316 314 308 301 298 285 274 240 213 205 202 200 197 199 200 203 203 204 208 209 210 215 220 226 230 229
5 27 52 79 101 112 99 85 72 58 37 21 13 354 337 327 320 316 316 314 310 305 316 313 300 263 234 219 207 202 200 201 205 209 208 213 216 214 215 218 223 225 224 221
37 52 65 66 67 76 79 65 60 51 26 10 0 348 337 331 327 322 316 297 293 308 316 317 304 278 256 237 217 208 207 209 211 213 213 214 216 218 218 221 224 226 225 225
32 46 57 63 63 62 58 49 49 33 11 10 1 337 325 325 328 325 319 307 322 329 323 317 311 290 271 260 233 220 216 217 217 217 217 219 221 223 224 224 225 225 226 227
14 32 46 53 65 53 37 32 29 20 11 8 1 348 338 334 333 324 301 298 321 325 324 303 298 296 295 280 244 233 229 227 226 224 222 222 223 226 228 227 228 229 228 227
351 9 17 14 23 27 18 13 4 359 352 348 342 338 328 318 316 317 318 324 322 319 320 297 302 303 299 284 256 247 243 239 235 231 229 226 225 227 229 228 230 231 230 229
317 331 331 338 353 338 324 322 329 332 326 321 322 324 324 320 315 302 303 317 324 321 314 308 310 306 302 289 268 258 253 252 248 243 238 233 230 230 231 231 232 232 231 230
282 284 279 272 277 281 283 296 309 315 318 310 308 311 313 300 292 302 308 312 320 324 318 316 318 316 312 292 276 267 262 256 255 251 242 238 235 233 234 233 233 232 231 231
262 262 256 248 251 265 269 272 280 290 298 303 304 301 307 307 303 305 306 308 313 321 322 313 313 314 307 293 284 278 273 273 272 264 254 247 240 238 238 237 235 235 234 233
258 255 258 265 260 249 250 255 266 278 280 285 293 297 306 309 309 310 311 312 314 315 314 313 313 310 308 303 297 289 282 276 269 263 258 252 247 242 239 238 238 235 232 231
Height
1472 1469 1471 1472 1472 1475 1477 1476 1479 1472 1470 1462 1460 1459 1459 1459 1461 1463 1465 1468 1470 1472 1475 1477 1478 1480 1481 1482 1483 1484 1484 1485 1485 1486 1486 1486 1487 1487 1488 1488 1488 1489 1489 1489
1469 1467 1469 1469 1468 1470 1470 1471 1470 1468 1463 1457 1456 1457 1457 1457 1459 1460 1462 1465 1467 1470 1472 1474 1476 1477 1478 1479 1480 1481 1481 1482 1482 1483 1483 1484 1484 1485 1486 1486 1486 1487 1487 1487
1473 1469 1466 1469 1461 1462 1464 1462 1462 1461 1454 1453 1454 1454 1453 1454 1455 1457 1459 1462 1464 1467 1469 1471 1473 1474 1476 1477 1477 1478 1479 1479 1480 1480 1481 1482 1482 1483 1484 1484 1485 1485 1486 1486
1472 1471 1472 1458 1452 1453 1455 1454 1454 1451 1449 1449 1448 1448 1449 1450 1452 1454 1456 1459 1461 1464 1466 1468 1470 1471 1473 1473 1474 1475 1476 1476 1477 1478 1478 1479 1480 1481 1482 1483 1484 1484 1485 1485
1472 1472 1466 1455 1450 1451 1453 1451 1447 1447 1445 1445 1446 1447 1446 1447 1448 1450 1453 1456 1458 1461 1463 1465 1466 1468 1469 1470 1471 1472 1472 1473 1474 1475 1476 1477 1478 1479 1480 1482 1482 1483 1484 1485
1469 1468 1466 1454 1448 1447 1450 1449 1443 1442 1442 1442 1444 1448 1444 1444 1445 1447 1450 1453 1455 1457 1459 1461 1463 1464 1465 1466 1467 1468 1470 1471 1472 1473 1474 1475 1476 1478 1479 1480 1481 1482 1483 1484
1465 1464 1460 1449 1446 1448 1454 1449 1442 1440 1439 1439 1440 1441 1442 1442 1443 1445 1447 1450 1452 1454 1456 1458 1459 1461 1462 1463 1464 1466 1467 1468 1469 1470 1472 1473 1475 1476 1478 1479 1480 1481 1482 1483
1461 1461 1458 1445 1446 1448 1446 1442 1441 1439 1438 1438 1438 1440 1440 1441 1442 1444 1446 1448 1449 1451 1453 1454 1456 1457 1458 1460 1462 1463 1464 1465 1466 1468 1470 1471 1473 1474 1476 1478 1479 1480 1481 1482
1454 1452 1445 1443 1443 1442 1442 1441 1440 1440 1439 1439 1439 1440 1440 1441 1442 1444 1445 1446 1448 1449 1450 1452 1453 1454 1456 1457 1459 1460 1461 1462 1464 1466 1467 1469 1471 1473 1474 1476 1477 1479 1480 1481
1450 1445 1442 1441 1441 1440 1440 1440 1440 1440 1439 1439 1440 1440 1441 1442 1442 1443 1444 1445 1446 1447 1448 1449 1450 1451 1453 1454 1455 1457 1458 1460 1461 1463 1465 1467 1469 1471 1473 1474 1475 1477 1478 1479
1448 1443 1441 1439 1439 1439 1439 1439 1439 1439 1439 1439 1440 1440 1441 1441 1442 1442 1443 1444 1444 1445 1446 1447 1448 1449 1450 1451 1452 1454 1455 1457 1459 1461 1463 1465 1467 1469 1471 1472 1474 1475 1476 1477
1446 1443 1442 1440 1438 1438 1438 1438 1438 1438 1438 1439 1439 1439 1440 1440 1441 1441 1441 1442 1442 1442 1443 1444 1445 1446 1447 1448 1449 1450 1452 1454 1456 1458 1460 1462 1464 1466 1468 1470 1471 1472 1473 1474
1442 1441 1440 1438 1437 1437 1436 1436 1437 1437 1437 1438 1438 1438 1438 1439 1439 1439 1439 1439 1439 1439 1440 1440 1441 1442 1443 1444 1446 1447 1449 1451 1453 1455 1457 1459 1461 1463 1465 1467 1468 1469 1470 1470
1439 1438 1437 1436 1435 1435 1435 1435 1436 1436 1436 1437 1437 1437 1437 1437 1437 1436 1436 1436 1436 1436 1436 1437 1438 1438 1440 1441 1442 1443 1445 1447 1449 1451 1454 1456 1458 1460 1461 1463 1464 1465 1466 1467
1435 1435 1435 1433 1433 1433 1433 1434 1434 1435 1435 1435 1435 1435 1435 1434 1434 1434 1434 1433 1433 1433 1433 1433 1434 1435 1436 1437 1438 1439 1441 1443 1445 1447 1450 1452 1454 1456 1457 1458 1460 1461 1462 1462
1432 1431 1431 1431 1431 1431 1432 1432 1433 1433 1433 1433 1433 1433 1433 1432 1432 1431 1431 1430 1430 1430 1430 1430 1430 1431 1432 1433 1434 1435 1436 1438 1441 1443 1445 1447 1449 1450 1452 1453 1455 1456 1457 1458
1430 1429 1429 1429 1429 1429 1430 1431 1431 1431 1431 1431 1431 1431 1431 1430 1429 1429 1428 1427 1427 1427 1426 1426 1427 1427 1428 1428 1429 1430 1432 1434 1436 1438 1440 1441 1443 1445 1447 1448 1449 1450 1451 1453
1427 1427 1427 1427 1427 1427 1428 1429 1429 1429 1430 1430 1429 1429 1428 1428 1427 1426 1425 1425 1424 1423 1423 1423 1423 1423 1424 1424 1425 1426 1427 1429 1431 1432 1434 1436 1438 1439 1441 1442 1443 1444 1445 1446
1425 1425 1425 1425 1425 1426 1426 1427 1427 1428 1428 1427 1427 1427 1426 1425 1424 1423 1423 1422 1421 1420 1420 1420 1419 1419 1420 1420 1421 1422 1423 1424 1425 1427 1428 1430 1431 1433 1434 1435 1436 1437 1438 1439
1425 1424 1424 1424 1424 1425 1425 1426 1426 1426 1426 1425 1425 1424 1424 1423 1422 1421 1420 1419 1418 1417 1417 1416 1416 1415 1415 1416 1416 1417 1418 1419 1420 1421 1422 1424 1425 1426 1427 1428 1429 1430 1431 1431
1425 1424 1424 1424 1424 1424 1425 1425 1424 1424 1424 1423 1423 1422 1421 1420 1419 1418 1417 1416 1416 1414 1413 1413 1412 1412 1411 1411 1412 1412 1413 1413 1414 1415 1416 1417 1418 1419 1420 1421 1422 1422 1423 1423
1426 1425 1424 1424 1424 1424 1424 1423 1423 1423 1422 1421 1420 1420 1419 1417 1416 1415 1414 1413 1412 1411 1410 1409 1408 1407 1407 1407 1407 1407 1407 1408 1408 1409 1410 1411 1411 1412 1413 1414 1414 1415 1415 1416
1426 1425 1424 1424 1423 1423 1423 1422 1422 1421 1420 1420 1419 1417 1416 1415 1414 1412 1411 1410 1409 1407 1406 1405 1404 1403 1403 1402 1402 1402 1402 1402 1403 1403 1404 1404 1405 1405 1406 1406 1407 1407 1407 1408
1425 1424 1424 1423 1423 1422 1422 1421 1421 1420 1419 1418 1417 1415 1414 1413 1411 1410 1408 1407 1405 1404 1402 1401 1400 1399 1398 1397 1397 1397 1397 1397 1397 1397 1398 1398 1398 1399 1399 1399 1399 1400 1400 1400
1424 1423 1423 1422 1421 1421 1420 1420 1419 1418 1417 1416 1415 1413 1412 1410 1409 1407 1405 1403 1402 1400 1399 1397 1396 1395 1394 1393 1392 1392 1391 1391 1391 1391 1392 1392 1392 1392 1392 1392 1393 1393 1393 1393
1422 1421 1421 1420 1420 1419 1418 1417 1416 1415 1414 1413 1412 1411 1409 1407 1405 1404 1402 1400 1398 1396 1395 1393 1392 1391 1390 1389 1388 1387 1387 1386 1386 1386 1386 1386 1386 1386 1386 1386 1386 1386 1386 1387
1420 1419 1418 1417 1417 1416 1415 1414 1413 1412 1411 1410 1408 1407 1406 1404 1402 1400 1399 1397 1395 1393 1391 1390 1388 1387 1386 1385 1384 1383 1383 1382 1382 1381 1381 1381 1381 1380 1380 1380 1380 1380 1380 1380